Miscellaneous Local Product
Issued by NWS Hastings, NE

Home | Current Version | Previous Version | Graphics & Text | Print | Product List | Glossary On
Versions: 1 2 3 4 5 6 7 8 9 10 11 12 13 14 15 16 17 18 19 20 21 22 23 24 25 26 27 28 29 30 31 32 33 34 35 36 37 38 39 40 41 42 43 44 45 46 47 48 49 50
790
AXUS43 KGID 231002
MISGRI

GID CWA HOURLY WEATHER ROUNDUP
NATIONAL WEATHER SERVICE HASTINGS NE
500 AM CDT MON OCT 23 2017

NOTE: "FAIR" INDICATES FEW OR NO CLOUDS BELOW 12,000 FEET WITH NO
SIGNIFICANT WEATHER AND/OR OBSTRUCTIONS TO VISIBILITY.

...SOUTH CENTRAL NEBRASKA...

CITY           SKY/WX    TMP DP  RH WIND       PRES   REMARKS
GRAND ISLAND   CLOUDY    55  37  50 NW18      29.94R
KEARNEY        CLEAR     55  36  48 NW16G26   29.98R
HASTINGS       CLEAR     53  33  46 NW17G24   29.94R
ORD            CLOUDY    58  39  49 NW17G33   29.98R
YORK           CLEAR     46  34  61 NW8       29.90R
AURORA         CLOUDY    53  33  48 NW14G21   29.91S
LEXINGTON      CLOUDY    50  38  62 NW10      30.04R
HOLDREGE       CLEAR     54  36  50 N12G18    29.98R
HEBRON         CLOUDY    47  32  56 W5        29.90S

...NEBRASKA PANHANDLE...

CITY           SKY/WX    TMP DP  RH WIND       PRES   REMARKS
CHADRON        CLOUDY    45  35  68 W9        30.18R
ALLIANCE       CLOUDY    44  34  67 NW10      30.19R
SCOTTSBLUFF    CLOUDY    46  34  62 NW23G32   30.23R
SIDNEY         CLOUDY    48  34  58 N32       30.22R

...WESTERN AND NORTH CENTRAL NEBRASKA...

CITY           SKY/WX    TMP DP  RH WIND       PRES   REMARKS
VALENTINE      CLOUDY    57  30  35 NW17G28   30.08R
AINSWORTH      LGT RAIN  55  39  54 NW17G25   30.08R
ONEILL         MOCLDY    57  40  53 NW22G28   29.97R
BROKEN BOW     PTCLDY    56  39  53 N22G28    30.03R
IMPERIAL       CLOUDY    54  34  46 N16G28    30.13R
NORTH PLATTE   PTCLDY    54  38  54 N15G22    30.09R
MCCOOK         CLOUDY    53  35  50 N16       30.07R

...EASTERN NEBRASKA...

CITY           SKY/WX    TMP DP  RH WIND       PRES   REMARKS
NORFOLK        CLOUDY    58  38  47 NW17G24   29.89R
SO SIOUX CITY  MOCLDY    43  38  82 CALM      29.86R
TEKAMAH        MOCLDY    44  35  70 CALM      29.86R
COLUMBUS       CLOUDY    49  34  56 W7        29.89R
ALBION         CLOUDY    61  39  45 NW23G31   29.93R
OMAHA EPPLEY   CLOUDY    47  36  65 S9        29.86F
OFFUTT AFB     PTCLDY    40  37  86 E3        29.85F
MILLARD        MOCLDY    47  36  65 CALM      29.86S
LINCOLN        PTCLDY    52  31  44 W6        29.91R
NEBRASKA CITY  PTCLDY    46  36  68 S9        29.87F
BEATRICE       CLEAR     46  35  64 S3        29.89S
FALLS CITY     CLEAR     45  37  73 S6        29.90F

...NORTHERN KANSAS...

CITY           SKY/WX    TMP DP  RH WIND       PRES   REMARKS
GOODLAND       CLEAR     53  30  41 NW16G23   30.09R
HILL CITY      CLEAR     51  33  50 W9        29.99R
NORTON         SUNNY     55  27  33 NW20G25   30.00R
PHILLIPSBURG   CLEAR     46  32  57 W13       29.97R
SMITH CENTER   CLEAR     37  30  75 SW5       29.93F WCI  34
HAYS           CLOUDY    43  31  62 W8        29.97F
RUSSELL        CLOUDY    44  34  67 SW12      29.94F
CONCORDIA      CLEAR     50  31  48 SW9       29.90F
SALINA         CLEAR     49  40  71 S5        29.93F
TOPEKA         CLEAR     45  39  79 SE5       29.94F



USA.gov is the U.S. government's official web portal to all federal, state and local government web resources and services.